This demonstration page uses our WeatherBlox Daily Observations layout. Learn more.

Left ArrowRight Arrow

Hourly Observations for January 28, 2016

Temp ( °F °C ) Dew Point ( °F °C ) Humidity (%) Winds ( mph kmh ) Pressure ( in mb ) Visibility ( mi km ) Precip ( " mm )
12:53 am 00:53 Clear 32 0 28 -2.2 85 85 SE 5 7 30.20 1023 10 16 0.00 0.00
1:53 am 01:53 Clear 28 -2.2 25 -3.9 88 88 N 6 9 30.19 1023 10 16 0.00 0.00
2:53 am 02:53 Clear 27 -2.8 25 -3.9 92 92 NNW 8 13 30.19 1022 10 16 0.00 0.00
3:53 am 03:53 Clear 27 -2.8 25 -3.9 92 92 NW 8 13 30.19 1022 10 16 0.00 0.00
4:53 am 04:53 undefined 27 -2.8 24 -4.4 89 89 NNW 6 9 30.18 1022 10 16 0.00 0.00
5:53 am 05:53 Clear 25 -3.9 22 -5.6 88 88 N 5 7 30.18 1022 10 16 0.00 0.00
6:53 am 06:53 Clear 25 -3.9 22 -5.6 88 88 NNW 6 9 30.21 1023 10 16 0.00 0.00
7:53 am 07:53 Sunny 26 -3.3 23 -5 88 88 NW 3 6 30.23 1024 10 16 0.00 0.00
8:53 am 08:53 Sunny 33 0.6 29 -1.7 85 85 W 6 9 30.24 1024 10 16 0.00 0.00
9:53 am 09:53 Sunny 43 6.1 31 -0.6 63 63 WNW 3 6 30.24 1024 10 16 0.00 0.00
10:53 am 10:53 Sunny 53 11.7 28 -2.2 38 38 NNW 3 6 30.22 1023 10 16 0.00 0.00
11:53 am 11:53 Sunny 58 14.4 27 -2.8 31 31 NW 3 6 30.21 1023 10 16 0.00 0.00
12:53 pm 12:53 Sunny 61 16.1 25 -3.9 25 25 Calm 30.17 1022 10 16 0.00 0.00
1:53 pm 13:53 Sunny 65 18.3 25 -3.9 22 22 S 7 11 30.12 1020 10 16 0.00 0.00
2:53 pm 14:53 Sunny 66 18.9 25 -3.9 21 21 WSW 5 7 30.11 1020 10 16 0.00 0.00
3:53 pm 15:53 Sunny 66 18.9 25 -3.9 21 21 WSW 6 9 30.09 1019 10 16 0.00 0.00
4:53 pm 16:53 Sunny 66 18.9 24 -4.4 20 20 SW 7 11 30.07 1018 10 16 0.00 0.00
5:53 pm 17:53 Sunny 63 17.2 25 -3.9 24 24 SSW 7 11 30.08 1019 10 16 0.00 0.00
6:53 pm 18:53 Clear 57 13.9 24 -4.4 28 28 SSW 6 9 30.09 1019 10 16 0.00 0.00
7:53 pm 19:53 Clear 51 10.6 24 -4.4 35 35 SSE 7 11 30.10 1019 10 16 0.00 0.00
8:53 pm 20:53 Clear 47 8.3 25 -3.9 42 42 SSE 9 15 30.09 1019 10 16 0.00 0.00
9:53 pm 21:53 Clear 45 7.2 26 -3.3 48 48 S 9 15 30.08 1019 10 16 0.00 0.00
10:53 pm 22:53 Clear 43 6.1 25 -3.9 49 49 S 6 9 30.07 1018 10 16 0.00 0.00
11:53 pm 23:53 Clear 43 6.1 28 -2.2 56 56 SW 6 9 30.06 1018 10 16 0.00 0.00

Powered by AerisWeather